Regional Weather Roundup
Issued by NWS Little Rock, AR

Home | Current Version | Previous Version | Graphics & Text | Print | Product List | Glossary On
Versions: 1 2 3 4 5 6 7 8 9 10 11 12 13 14 15 16 17 18 19 20 21 22 23 24 25 26 27 28 29 30 31 32 33 34 35 36 37 38 39 40 41 42 43 44 45 46 47 48 49 50
000
ASUS44 KLZK 312305
RWRLZK

WEATHER ROUNDUP FOR ARKANSAS
NATIONAL WEATHER SERVICE LITTLE ROCK AR
600 PM CDT MON AUG 31 2015

NOTE: "FAIR" INDICATES FEW OR NO CLOUDS BELOW 12,000 FEET WITH NO
SIGNIFICANT WEATHER AND/OR OBSTRUCTIONS TO VISIBILITY.

ARZ001-003-010-029-010000-
NORTHWEST ARKANSAS

CITY           SKY/WX    TMP DP  RH WIND       PRES   REMARKS
FAYETTEVILLE   SUNNY     84  69  60 S6        30.03S HX  88
FORT SMITH     SUNNY     90  69  50 E7        29.97S HX  94
BENTONVILLE    SUNNY     88  66  48 SW8       30.04S HX  90
ROGERS         PTSUNNY   87  70  56 SE5       30.04R HX  92
SILOAM SPGS    MOSUNNY   88  66  48 S9        30.01R HX  90
HIGHFILL       SUNNY     87  69  54 S8        30.03R HX  91
SPRINGDALE     MOSUNNY   86  68  54 S9        30.05S HX  89
$$

ARZ004-005-016-010000-
NORTH CENTRAL ARKANSAS

CITY           SKY/WX    TMP DP  RH WIND       PRES   REMARKS
BATESVILLE     PTSUNNY   82  73  74 CALM      30.03S HX  88
FLIPPIN        MOSUNNY   88  64  45 SE3       30.01S HX  89
MTN HOME       MOSUNNY   84  68  58 SE3       30.02S HX  87
$$

ARZ040-041-010000-
WEST CENTRAL ARKANSAS

CITY           SKY/WX    TMP DP  RH WIND       PRES   REMARKS
MENA           MOSUNNY   90  66  45 SE5       30.02S HX  92
MOUNT IDA      MOSUNNY   83  68  60 VRB7      30.01R HX  86
$$

ARZ009-017-025-026-028-010000-
NORTHEAST ARKANSAS

CITY           SKY/WX    TMP DP  RH WIND       PRES   REMARKS
JONESBORO      MOSUNNY   87  69  54 SE7       30.03R HX  91
NEWPORT        MOSUNNY   85  74  69 E5        30.04R HX  92
WALNUT RIDGE   PTSUNNY   81  72  74 W3        30.03S
BLYTHEVILLE    SUNNY     87  70  56 SE3       30.04S HX  92
$$

ARZ022-023-033-042-044-010000-
CENTRAL ARKANSAS

CITY           SKY/WX    TMP DP  RH WIND       PRES   REMARKS
LITTLE ROCK    MOSUNNY   90  65  43 SE5       30.00R HX  92
N LITTLE ROCK  MOSUNNY   90  68  47 SE7       30.00R HX  94
JACKSONVILLE   PTSUNNY   89  68  50 E6        30.00S HX  92
SEARCY         PTSUNNY   91  71  51 SE7       30.02S HX  97
HOT SPRINGS    PTSUNNY   88  69  53 CALM      30.01R HX  92
RUSSELLVILLE   PTSUNNY   81  67  62 CALM      30.01S
$$

ARZ036-010000-
EAST ARKANSAS

CITY           SKY/WX    TMP DP  RH WIND       PRES   REMARKS
WEST MEMPHIS   SUNNY     87  68  52 E7        30.02S HX  90
$$

ARZ050-053-066-070-073-010000-
SOUTHWEST ARKANSAS

CITY           SKY/WX    TMP DP  RH WIND       PRES   REMARKS
ARKADELPHIA    FAIR      90  70  51 NE3       29.99S HX  95
CAMDEN         SUNNY     91  64  40 CALM      29.98S HX  93
TEXARKANA      MOSUNNY   89  64  43 S9        29.99S HX  90
EL DORADO      MOSUNNY   93  57  29 SE7       29.99S HX  91
DE QUEEN       SUNNY     91  66  43 SE7       29.96S HX  93
$$

ARZ056-057-069-010000-
SOUTHEAST ARKANSAS

CITY           SKY/WX    TMP DP  RH WIND       PRES   REMARKS
PINE BLUFF     MOSUNNY   85  69  58 E8        29.99S HX  89
STUTTGART      SUNNY     91  66  43 E8        30.01S HX  94
MONTICELLO     PTSUNNY   87  71  58 CALM      29.99S HX  93

$$





USA.gov is the U.S. government's official web portal to all federal, state and local government web resources and services.